Regional Weather Roundup
Issued by NWS San Diego, CA

Home | Current Version | Previous Version | Text Only | Print | Product List | Glossary On
Versions: 1 2 3 4 5 6 7 8 9 10 11 12 13 14 15 16 17 18 19 20 21 22 23 24 25 26 27 28 29 30 31 32 33 34 35 36 37 38 39 40 41 42 43 44 45 46 47 48 49 50
000
ASUS46 KSGX 260510
RWRSGX

SAN DIEGO HOURLY WEATHER ROUNDUP
NATIONAL WEATHER SERVICE SAN DIEGO CA
900 PM PST TUE NOV 25 2014

NOTE: "FAIR" INDICATES FEW OR NO CLOUDS BELOW 12,000 FEET WITH NO
SIGNIFICANT WEATHER AND/OR OBSTRUCTIONS TO VISIBILITY.

CAZ042-043-060-061-PZZ750-775-260600-

GREATER SAN DIEGO AREA

CITY           SKY/WX    TMP DP  RH WIND       PRES   REMARKS
LINDBERGH FLD  CLEAR     63  29  27 CALM      30.29S
POINT LOMA       N/A     66  30  26 N9          N/A
NATIONAL CITY    N/A     61  25  25 CALM      30.29R
CHULA VISTA      N/A     58  28  32 E2        30.21F
IMPERIAL BEACH CLEAR     56  37  49 E5        30.29R
BROWN FIELD    CLEAR     59  23  25 SE5       30.28S
MIRAMAR MCAS   CLEAR     54  22  28 E7        30.28S
MONTGOMERY FLD CLEAR     60  21  22 CALM      30.28S

$$

NORTH SAN DIEGO COUNTY

CITY           SKY/WX    TMP DP  RH WIND       PRES   REMARKS
CAMP PENDLETON CLEAR     54  17  23 CALM      30.28S
OCEANSIDE AP   CLEAR     48  26  42 CALM      30.27S
OCEANSIDE HBR    N/A     59  30  33 CALM      30.30R
VISTA            N/A     55  28  35 CALM      30.26S
CARLSBAD       CLEAR     60  24  25 NE5       30.27S
DEL MAR          N/A     62  45  54 CALM      30.30S
FALLBROOK        N/A     63  13  14 CALM      30.29S
ESCONDIDO        N/A     57  30  35 CALM      30.30R
SAN MARCOS       N/A     62  24  23 CALM      30.26S
POWAY            N/A     51  32  47 CALM      30.30S

$$

EAST SAN DIEGO COUNTY

CITY           SKY/WX    TMP DP  RH WIND       PRES   REMARKS
RAMONA         CLEAR     47  27  45 CALM      30.30F
SANTEE LAKES     N/A     53  26  35 CALM      30.31S
LA MESA          N/A     63  27  26 E3        30.23S
JAMUL            N/A     54  23  29 CALM      30.28S
DESCANSO N       N/A     51  20  29 CALM      30.21S
MT. LAGUNA OBS   N/A     54   8  15 NE12      29.96S
CAMPO            N/A     43   4  19 N5        30.32S

$$

ORANGE COUNTY AND THE LOS ANGELES BASIN

CITY           SKY/WX    TMP DP  RH WIND       PRES   REMARKS
JOHN WAYNE AP  CLEAR     64  33  31 CALM      30.28S
LAKE FOREST FR   N/A     60  18  19 CALM      30.18F
SANTA ANA        N/A     56  41  57 CALM      30.23F
HUNTINGTON BCH   N/A     52  45  77 CALM      30.30S
LOS ALAMITOS   CLEAR     55  39  54 CALM      30.28S
FULLERTON      CLEAR     59  29  31 CALM      30.28S
LONG BEACH     CLEAR     61  37  41 CALM      30.28S
L.A. AP        CLEAR     64  51  62 VRB3      30.29R
L.A. DOWNTOWN  CLEAR     60  46  59 CALM      30.28S

$$

THE INLAND EMPIRE

CITY           SKY/WX    TMP DP  RH WIND       PRES   REMARKS
CORONA         CLEAR     45  24  43 CALM      30.30S
CHINO          CLEAR     54  30  40 NE6       30.31S
ONTARIO        CLEAR     61  22  22 NE3       30.30R
RIVERSIDE AP   CLEAR     59  21  23 CALM      30.31R
RIV CYN CREST    N/A     60  31  33 SE1         N/A
MORENO VALLEY    N/A     59  24  25 CALM      29.48S
MARCH ARB      CLEAR     53  13  20 CALM      30.32R
HORSETHIEF CYN   N/A     60   7  12 S3        30.33S
PERRIS           N/A     62  23  22 CALM      30.31R
MENIFEE          N/A     56  26  31 CALM      30.37S
HEMET EAST       N/A     60   7  12 CALM      30.30S
FRENCH VALLEY  FAIR      54  14  20 NE3       30.31S
TEMECULA         N/A     56  23  27 CALM      30.28R

$$

SAN BERNARDINO AND RIVERSIDE COUNTY MOUNTAINS

CITY           SKY/WX    TMP DP  RH WIND       PRES   REMARKS
BIG BEAR AP    CLEAR     34  14  44 CALM      30.54S
PINE COVE        N/A     56  18  22 NW1       30.27S

$$

SOUTHERN DESERT INCLUDING THE COACHELLA VALLEY

CITY           SKY/WX    TMP DP  RH WIND       PRES   REMARKS
PALM SPRINGS   CLEAR     58  20  22 CALM      30.33F
PALM DESERT      N/A     54  37  53 CALM        N/A
THERMAL        CLEAR     49  32  52 N3        30.30S
BLYTHE         CLEAR     52  11  19 N8        30.31S
IMPERIAL AP    CLEAR     51  26  37 CALM      30.30S
EL CENTRO NAS  CLEAR     50  22  33 W8        30.31S
YUMA AZ        CLEAR     56  18  22 CALM      30.29F
MEXICALI       CLEAR     57  16  19 NW3       30.31

$$

UPPER DESERT

CITY           SKY/WX    TMP DP  RH WIND       PRES   REMARKS
VICTORVILLE AP CLEAR     45   1  16 CALM      30.40R
HESPERIA         N/A     48  10  21 W7        30.56R
APPLE VALLEY     N/A     41  14  33 CALM      30.43R
PALMDALE       CLEAR     46  11  24 SW5       30.40R
LANCASTER      CLEAR     40   7  25 W5        30.40R
EDWARDS AFB    CLEAR     42   4  20 NE1       30.38R
DAGGETT        CLEAR     45   2  17 NW3       30.38S
29 PALMS N     CLEAR     51   5  15 W6        30.43S
NEEDLES        CLEAR     53   9  17 W7        30.33S

$$

REGIONAL REPORTS

CITY           SKY/WX    TMP DP  RH WIND       PRES   REMARKS
SANTA BARBARA  CLEAR     52  37  56 CALM      30.26F
SANDBERG       CLEAR     55   2  11 NE12      30.44R
MT. WILSON       N/A     57   7  13 MISG        N/A
LAS VEGAS NV   CLEAR     50  16  25 S6        30.35R
PHOENIX AZ     CLEAR     54  15  21 E6        30.29S
TIJUANA        CLEAR     61  27  27 CALM      30.30R
ENSENADA NW      N/A     65  32  29 NE2       30.24R

$$

OFFSHORE ISLANDS

CITY           SKY/WX    TMP DP  RH WIND       PRES   REMARKS
CATALINA ARPT  CLEAR     81  13   7 W7        30.34R
SAN NICOLAS IS CLEAR    N/A N/A N/A W15       30.29S

$$

MARINE AND OFFSHORE BUOY REPORTS

STATION/POSITION SKY/WX   TEMP    WIND        PRES    SWELL
                          AIR SEA DIR/SP/G            HT/PER/DIR
                          (F)     (DEG/KT/KT) (MB)    (FT/S/D)
TANNER BANKS               65 65  330/  6/  8 1025.9R   7/320/14
S CLEMENTE BASIN           67 66  330/ 10/ 10 1025.3S   5/300/14
SAN NICOLAS IS.               63                N/A     5/310/13
SO. S. ROSA ISLA           63 63  300/ 10/ 12 1025.0F   5/14
W. S. BARBARA CH           65 63  310/ 10/ 12 1024.8S   7/300/14
M. S. BARBARA CH           66     270/ 10       N/A
S. MONICA BASIN            66 66  300/  6/  8 1025.8R   2/260/11
S PEDRO CHANNEL               65                N/A     3/270/13
DANA POINT                    66                N/A     2/260/13
CMP PENDLETON NS              65                N/A     2/230/13
OCEANSIDE OFFSHR              66                N/A     2/250/13
TORREY PINES OTR              66                N/A     2/280/13
LA JOLLA 1                 65 66  160/  1/  2 1025.3S
MISSION BAY BUOY              67                N/A     3/280/14
SAN DIEGO BAY                 67              1025.8R
POINT LOMA SOUTH              66                N/A     3/290/14

$$




USA.gov is the U.S. government's official web portal to all federal, state and local government web resources and services.